Regional Weather Roundup
Issued by NWS

Home | Current Version | Previous Version | Graphics & Text | Print | Product List | Glossary On
Versions: 1 2 3 4 5 6 7 8 9 10 11 12 13 14 15 16 17 18 19 20 21 22 23 24 25 26 27 28 29 30 31 32 33 34 35 36 37 38 39 40 41 42 43 44 45 46 47 48 49 50
000
ASUS43 KTOP 050708
RWRKS

WEATHER ROUNDUP FOR KANSAS
NATIONAL WEATHER SERVICE GOODLAND KS
100 AM CST MON DEC 05 2016

NOTE:  "FAIR" INDICATES FEW OR NO CLOUDS BELOW 12,000 FEET WITH NO
SIGNIFICANT WEATHER AND/OR OBSTRUCTIONS TO VISIBILITY.

KSZ001>006-013>018-027>032-041>047-050800-
NORTHWEST KANSAS

CITY           SKY/WX    TMP DP  RH WIND       PRES   REMARKS
GOODLAND       CLOUDY    32  16  51 S16       29.70F WCI  21
HAYS           CLEAR     33  24  69 S8        29.85F
HILL CITY      CLEAR     38  24  57 SW13      29.80F WCI  30
RUSSELL        CLEAR     36  26  67 S17       29.83F WCI  26
$$

KSZ061>065-074>080-084>089-050800-
SOUTHWEST KANSAS

CITY           SKY/WX    TMP DP  RH WIND       PRES   REMARKS
DODGE CITY     CLEAR     33  25  72 S9        29.89F
ELKHART          N/A     29  15  56 S12         N/A  WCI  19
GARDEN CITY    CLEAR     33  23  66 S9        29.84F
GREAT BEND     CLEAR     35  27  72 S12       29.89F WCI  27
LIBERAL        CLOUDY    32  21  64 S14       29.89F WCI  22
PRATT          CLEAR     28  23  82 S10       29.93F WCI  18
$$

KSZ066>073-081>083-090>101-050800-
SOUTHEAST KANSAS

CITY           SKY/WX    TMP DP  RH WIND       PRES   REMARKS
CHANUTE        CLEAR     30  28  92 SE8       30.00F FOG
COFFEYVILLE    CLOUDY    33  32  96 SE5       30.03F
HUTCHINSON     CLEAR     31  27  85 S3        29.93F
MEDICINE LODGE   N/A     32  24  72 CALM      29.95F
NEWTON         CLEAR     35  33  92 S12       29.94F WCI  27
PARSONS        CLOUDY    29  28  96 CALM      30.02F
WICHITA INTL   CLEAR     32  31  96 S5        29.95F
WICHITA JABRA  CLEAR     35  34  96 S8        29.95F
WICHITA MCCONL CLEAR     35  32  92 S3        29.95F
WINFIELD       CLEAR     33  32  96 S5        30.00F
$$

KSZ007>012-019>026-033>040-048>060-102>105-050800-
NORTHEAST KANSAS

CITY           SKY/WX    TMP DP  RH WIND       PRES   REMARKS
CONCORDIA      CLEAR     35  29  78 S12       29.87F WCI  27
EMPORIA        CLEAR     32  32 100 S9        29.96F
LAWRENCE       CLEAR     30  30 100 E7        29.97F
MANHATTAN      CLEAR     28  27  96 CALM      29.93F
MARYSVILLE     CLOUDY    34  32  93 S6        29.90S
OLATHE IND     PTCLDY    29  29 100 S7        29.98F FOG
OLATHE EXE     CLEAR     30  30 100 S5        29.98F FOG
SALINA         CLEAR     33  29  85 S9        29.91F
TOPEKA BILLARD CLEAR     31  28  89 CALM      29.95F
TOPEKA FORBES  CLEAR     32  30  92 S7        29.95F
$$




USA.gov is the U.S. government's official web portal to all federal, state and local government web resources and services.